Location: Unspecified
(0.0000°N, 0.0000°E)
Time: 02:22:00
(UTC+02:00)

Sapphire - Visible Passes

Search period start: 29 June 2017 00:00
Search period end: 09 July 2017 00:00
Orbit: 784 x 797 km, 67.1° (Epoch: 28 June)

Date Brightness Start Highest point End Pass type
(mag) Time Alt. Az. Time Alt. Az. Time Alt. Az.
30 Jun ? 23:13:05 10° NNW 23:13:14 11° NNW 23:13:14 11° NNW visible
01 Jul ? 22:42:33 10° N 22:43:52 18° N 22:43:52 18° N visible
02 Jul ? 22:12:14 10° N 22:14:32 24° NNE 22:14:32 24° NNE visible
03 Jul ? 21:42:12 10° NNE 21:45:17 23° NE 21:45:17 23° NE visible
03 Jul ? 23:25:47 10° WNW 23:26:04 11° WNW 23:26:04 11° WNW visible
04 Jul ? 21:12:36 10° NNE 21:15:58 17° ENE 21:16:06 17° ENE visible
04 Jul ? 22:54:21 10° NW 22:56:53 23° WNW 22:56:53 23° WNW visible
05 Jul ? 20:44:36 10° ENE 20:45:19 10° ENE 20:46:01 10° ENE visible
05 Jul ? 22:23:17 10° NW 22:27:47 46° W 22:27:47 46° W visible
06 Jul ? 21:52:28 10° NNW 21:57:51 77° WSW 21:58:44 61° S visible
07 Jul ? 21:21:52 10° NNW 21:27:13 69° ENE 21:29:45 32° SE visible
08 Jul ? 20:51:29 10° N 20:56:36 44° ENE 21:00:50 15° SE visible
08 Jul ? 22:37:54 10° W 22:39:45 12° WSW 22:41:36 10° SW visible
